2022-090C (53348 NORAD) Tracking and Keplerian Element Data

This shows tracking and keplerian element data for the satellite.

Feedback or suggestion? Click here.




ElementValue
Catalog53348
Name2022-090C
Epoch Orbit823
Epoch Day270.22786907
Epoch Year2022
RAAN342.8291
Inclination97.4669
Eccentricity0.001321
Argument of Perigee91.2306
Mean Anonmoly355.263
Mean Motion15.24703387
Decay Rate0.00014313
L11 53348U 22090C 22270.22786907 .00014313 00000+0 57965-3 0 9996
L22 53348 97.4669 342.8291 0013210 91.2306 355.2630 15.24703387 8230

Live tracking and technical data element details for 2022-090C (NORAD 53348). 2022-090C can be tracked NOW for your location showing map with azimuth and elevation plus other details from your city location.

Track the satellite on the map from your city or location and see movement details for azimuth, elevation, latitude, longitude, range, height, and movement on the map or in text.







IsCatalogInMostPopularTable: catalog: 53348, numindb: 2
Update: records affected: 1



GetName: 53348 2022-090C

Hit Count: updated at: Wed, 28 Sep 2022 22:58:19 GMT